• In Deutschland
  • Länderverzeichnis
  • Für 7 Tage
  • Wassertemperatur
  • Satellitenkarten
  • Wetterkarte
  • Widgets
  • user-avatar
    Anmelden

    Stündliche Wetter Tirana

    Heute, 21 August, Montag

    Zeit Temperatur Niederschläge Wind Luftdruck Luftfeuchtigkeit
    00:00 +25°C° 1,6 mm 3 m/S 751 mmHg 73%
    01:00 +24°C° 0 mm 3 m/S 751 mmHg 75%
    02:00 +24°C° 0,7 mm 3 m/S 751 mmHg 79%
    03:00 +24°C° 0,7 mm 3 m/S 751 mmHg 82%
    04:00 +22°C° 0,7 mm 3 m/S 751 mmHg 85%
    05:00 +24°C° 0 mm 3 m/S 751 mmHg 79%
    06:00 +25°C° 0 mm 2 m/S 751 mmHg 74%
    07:00 +26°C° 0 mm 2 m/S 751 mmHg 69%
    08:00 +28°C° 0 mm 3 m/S 751 mmHg 60%
    09:00 +30°C° 0 mm 3 m/S 751 mmHg 52%
    10:00 +33°C° 0 mm 3 m/S 751 mmHg 43%
    11:00 +33°C° 0,1 mm 4 m/S 751 mmHg 41%
    12:00 +34°C° 0,1 mm 4 m/S 751 mmHg 39%
    13:00 +34°C° 0,1 mm 5 m/S 751 mmHg 36%
    14:00 +34°C° 0 mm 5 m/S 750 mmHg 37%
    15:00 +33°C° 0 mm 6 m/S 750 mmHg 38%
    16:00 +33°C° 0 mm 7 m/S 750 mmHg 39%
    17:00 +30°C° 0 mm 7 m/S 751 mmHg 45%
    18:00 +28°C° 0 mm 6 m/S 751 mmHg 51%
    19:00 +26°C° 0 mm 6 m/S 751 mmHg 57%
    20:00 +24°C° 0 mm 6 m/S 751 mmHg 60%
    21:00 +23°C° 0 mm 5 m/S 752 mmHg 63%
    22:00 +22°C° 0 mm 5 m/S 752 mmHg 65%
    23:00 +22°C° 0 mm 5 m/S 752 mmHg 65%

    Morgen, 22 August, Dienstag

    Zeit Temperatur Niederschläge Wind Luftdruck Luftfeuchtigkeit
    00:00 +21°C° 0 mm 5 m/S 752 mmHg 65%
    01:00 +21°C° 0 mm 5 m/S 753 mmHg 65%
    02:00 +20°C° 0 mm 5 m/S 753 mmHg 64%
    03:00 +19°C° 0 mm 5 m/S 753 mmHg 63%
    04:00 +19°C° 0 mm 5 m/S 753 mmHg 62%
    05:00 +20°C° 0 mm 5 m/S 753 mmHg 56%
    06:00 +21°C° 0 mm 5 m/S 753 mmHg 51%
    07:00 +23°C° 0 mm 5 m/S 754 mmHg 45%
    08:00 +26°C° 0 mm 5 m/S 754 mmHg 40%
    09:00 +28°C° 0 mm 5 m/S 754 mmHg 34%
    10:00 +29°C° 0 mm 5 m/S 754 mmHg 29%
    11:00 +32°C° 0 mm 5 m/S 754 mmHg 26%
    12:00 +33°C° 0 mm 5 m/S 753 mmHg 23%
    13:00 +34°C° 0 mm 5 m/S 753 mmHg 21%
    14:00 +34°C° 0 mm 6 m/S 753 mmHg 21%
    15:00 +33°C° 0 mm 7 m/S 753 mmHg 21%
    16:00 +33°C° 0 mm 7 m/S 752 mmHg 21%
    17:00 +29°C° 0 mm 7 m/S 753 mmHg 29%
    18:00 +27°C° 0 mm 6 m/S 753 mmHg 37%
    19:00 +23°C° 0 mm 6 m/S 753 mmHg 45%
    20:00 +22°C° 0 mm 5 m/S 753 mmHg 45%
    21:00 +21°C° 0 mm 5 m/S 754 mmHg 45%
    22:00 +21°C° 0 mm 4 m/S 754 mmHg 45%
    23:00 +20°C° 0 mm 4 m/S 754 mmHg 45%

    übermorgen, 23 August, Mittwoch

    Zeit Temperatur Niederschläge Wind Luftdruck Luftfeuchtigkeit
    00:00 +20°C° 0 mm 3 m/S 754 mmHg 44%
    01:00 +20°C° 0 mm 3 m/S 754 mmHg 44%
    02:00 +19°C° 0 mm 3 m/S 754 mmHg 44%
    03:00 +19°C° 0 mm 3 m/S 754 mmHg 45%
    04:00 +19°C° 0 mm 2 m/S 754 mmHg 46%
    05:00 +20°C° 0 mm 2 m/S 754 mmHg 43%
    06:00 +23°C° 0 mm 2 m/S 754 mmHg 41%
    07:00 +25°C° 0 mm 2 m/S 754 mmHg 38%
    08:00 +27°C° 0 mm 2 m/S 755 mmHg 33%
    09:00 +30°C° 0 mm 2 m/S 755 mmHg 28%
    10:00 +32°C° 0 mm 2 m/S 755 mmHg 23%
    11:00 +34°C° 0 mm 3 m/S 755 mmHg 21%
    12:00 +34°C° 0 mm 4 m/S 754 mmHg 20%
    13:00 +35°C° 0 mm 5 m/S 754 mmHg 18%
    14:00 +34°C° 0 mm 5 m/S 754 mmHg 20%
    15:00 +34°C° 0 mm 5 m/S 754 mmHg 22%
    16:00 +33°C° 0 mm 5 m/S 754 mmHg 24%
    17:00 +29°C° 0 mm 4 m/S 754 mmHg 33%
    18:00 +26°C° 0 mm 4 m/S 754 mmHg 41%
    19:00 +22°C° 0 mm 3 m/S 755 mmHg 50%
    20:00 +23°C° 0 mm 2 m/S 755 mmHg 48%
    21:00 +23°C° 0 mm 2 m/S 755 mmHg 47%
    22:00 +21°C° 0 mm 2 m/S 755 mmHg 45%
    23:00 +21°C° 0 mm 2 m/S 755 mmHg 44%

    24 August, Donnerstag

    Zeit Temperatur Niederschläge Wind Luftdruck Luftfeuchtigkeit
    00:00 +21°C° 0 mm 2 m/S 755 mmHg 42%
    01:00 +21°C° 0 mm 2 m/S 755 mmHg 40%
    02:00 +20°C° 0 mm 2 m/S 755 mmHg 40%
    03:00 +20°C° 0 mm 2 m/S 755 mmHg 40%
    04:00 +20°C° 0 mm 2 m/S 755 mmHg 40%
    05:00 +21°C° 0 mm 2 m/S 756 mmHg 38%
    06:00 +24°C° 0 mm 2 m/S 756 mmHg 36%
    07:00 +26°C° 0 mm 2 m/S 756 mmHg 34%
    08:00 +28°C° 0 mm 2 m/S 756 mmHg 30%
    09:00 +31°C° 0 mm 2 m/S 756 mmHg 25%
    10:00 +34°C° 0 mm 2 m/S 756 mmHg 21%
    11:00 +35°C° 0 mm 3 m/S 756 mmHg 20%
    12:00 +36°C° 0 mm 3 m/S 756 mmHg 19%
    13:00 +36°C° 0 mm 4 m/S 755 mmHg 18%
    14:00 +36°C° 0 mm 5 m/S 755 mmHg 19%
    15:00 +36°C° 0 mm 5 m/S 755 mmHg 20%
    16:00 +35°C° 0 mm 5 m/S 755 mmHg 20%
    17:00 +32°C° 0 mm 5 m/S 755 mmHg 27%
    18:00 +28°C° 0 mm 4 m/S 755 mmHg 34%
    19:00 +25°C° 0 mm 3 m/S 755 mmHg 41%
    20:00 +25°C° 0 mm 3 m/S 756 mmHg 39%
    21:00 +25°C° 0 mm 2 m/S 756 mmHg 37%
    22:00 +24°C° 0 mm 2 m/S 756 mmHg 36%
    23:00 +24°C° 0 mm 2 m/S 756 mmHg 35%

    25 August, Freitag

    Zeit Temperatur Niederschläge Wind Luftdruck Luftfeuchtigkeit
    00:00 +24°C° 0 mm 2 m/S 756 mmHg 33%
    01:00 +23°C° 0 mm 2 m/S 756 mmHg 32%
    02:00 +23°C° 0 mm 2 m/S 756 mmHg 31%
    03:00 +23°C° 0 mm 2 m/S 756 mmHg 31%
    04:00 +23°C° 0 mm 2 m/S 756 mmHg 30%
    05:00 +24°C° 0 mm 2 m/S 756 mmHg 29%
    06:00 +26°C° 0 mm 2 m/S 756 mmHg 28%
    07:00 +28°C° 0 mm 2 m/S 756 mmHg 27%
    08:00 +30°C° 0 mm 2 m/S 756 mmHg 24%
    09:00 +33°C° 0 mm 1 m/S 756 mmHg 20%
    10:00 +36°C° 0 mm 1 m/S 756 mmHg 17%
    11:00 +37°C° 0 mm 2 m/S 756 mmHg 16%
    12:00 +38°C° 0 mm 3 m/S 756 mmHg 16%
    13:00 +38°C° 0 mm 4 m/S 755 mmHg 15%
    14:00 +38°C° 0 mm 4 m/S 755 mmHg 17%
    15:00 +37°C° 0 mm 4 m/S 755 mmHg 18%
    16:00 +37°C° 0 mm 4 m/S 755 mmHg 19%
    17:00 +34°C° 0 mm 4 m/S 755 mmHg 26%
    18:00 +30°C° 0 mm 3 m/S 755 mmHg 32%
    19:00 +27°C° 0 mm 2 m/S 755 mmHg 38%
    20:00 +26°C° 0 mm 2 m/S 755 mmHg 37%
    21:00 +26°C° 0 mm 2 m/S 755 mmHg 36%
    22:00 +26°C° 0 mm 1 m/S 756 mmHg 35%
    23:00 +25°C° 0 mm 1 m/S 755 mmHg 34%

    26 August, Samstag

    Zeit Temperatur Niederschläge Wind Luftdruck Luftfeuchtigkeit
    00:00 +25°C° 0 mm 1 m/S 755 mmHg 33%
    01:00 +25°C° 0 mm 1 m/S 755 mmHg 31%
    02:00 +24°C° 0 mm 1 m/S 755 mmHg 31%
    03:00 +24°C° 0 mm 1 m/S 755 mmHg 31%
    04:00 +24°C° 0 mm 1 m/S 755 mmHg 31%
    05:00 +25°C° 0 mm 1 m/S 755 mmHg 31%
    06:00 +27°C° 0 mm 2 m/S 755 mmHg 30%
    07:00 +28°C° 0 mm 2 m/S 756 mmHg 29%
    08:00 +31°C° 0 mm 1 m/S 755 mmHg 25%
    09:00 +34°C° 0 mm 1 m/S 755 mmHg 21%
    10:00 +37°C° 0 mm 1 m/S 755 mmHg 17%
    11:00 +38°C° 0 mm 2 m/S 755 mmHg 16%
    12:00 +39°C° 0 mm 3 m/S 755 mmHg 15%
    13:00 +40°C° 0 mm 4 m/S 754 mmHg 14%
    14:00 +40°C° 0 mm 4 m/S 754 mmHg 16%
    15:00 +38°C° 0 mm 4 m/S 754 mmHg 17%
    16:00 +37°C° 0 mm 4 m/S 754 mmHg 18%
    17:00 +34°C° 0 mm 3 m/S 754 mmHg 25%
    18:00 +30°C° 0 mm 2 m/S 754 mmHg 31%
    19:00 +27°C° 0 mm 2 m/S 754 mmHg 37%
    20:00 +27°C° 0 mm 2 m/S 754 mmHg 36%
    21:00 +26°C° 0 mm 1 m/S 754 mmHg 35%
    22:00 +26°C° 0 mm 1 m/S 755 mmHg 34%
    23:00 +26°C° 0 mm 1 m/S 754 mmHg 33%
    Mehr zeigen